,,,PA_Meas_PMT16A,,PR_Meas_QMR101_102,,RH_Meas_QMH101,,SR_Meas_QMS101,,TA_Meas_QMH101,,GenWind,,GenWind,
date,time,status,PA,status,PR,status,RH,status,SR,status,TA,status,DirAvg,status,SpdAvg,
2012-03-11, 00:00:04,VALID,1001.42,VALID,0,VALID,90.4251,VALID,0,VALID,24.422,VALID,35,VALID,0.801172,
2012-03-11, 00:01:04,VALID,1001.42,VALID,0,VALID,90.2268,VALID,0,VALID,24.4238,VALID,25,VALID,0.5875,
2012-03-11, 00:02:04,VALID,1001.42,VALID,0,VALID,90.3336,VALID,0,VALID,24.4238,VALID,14,VALID,0.685938,
2012-03-11, 00:03:04,VALID,1001.44,VALID,0,VALID,90.1657,VALID,0,VALID,24.383,VALID,11,VALID,0.946484,
2012-03-11, 00:04:04,VALID,1001.38,VALID,0,VALID,89.4028,VALID,0,VALID,24.3654,VALID,46,VALID,1.17656,
2012-03-11, 00:05:04,VALID,1001.42,VALID,0,VALID,89.5859,VALID,0,VALID,24.3849,VALID,31,VALID,1.06133,
2012-03-11, 00:06:04,VALID,1001.4,VALID,0.5,VALID,89.5249,VALID,0,VALID,24.3849,VALID,11,VALID,1.33477,
2012-03-11, 00:07:04,VALID,1001.38,VALID,0,VALID,89.6393,VALID,0,VALID,24.3654,VALID,3,VALID,1.12656,
2012-03-11, 00:08:04,VALID,1001.37,VALID,0,VALID,88.6857,VALID,0,VALID,24.3052,VALID,25,VALID,1.38437,
2012-03-11, 00:09:04,VALID,1001.35,VALID,0,VALID,88.5103,VALID,0.0815089,VALID,24.3052,VALID,19,VALID,1.44648,
2012-03-11, 00:10:04,VALID,1001.31,VALID,0,VALID,88.6628,VALID,0,VALID,24.307,VALID,15,VALID,1.68984,
2012-03-11, 00:11:04,VALID,1001.3,VALID,0,VALID,88.8765,VALID,0,VALID,24.2857,VALID,356,VALID,0.878125,
2012-03-11, 00:12:04,VALID,1001.28,VALID,0,VALID,88.8688,VALID,0,VALID,24.2662,VALID,23,VALID,1.30508,
2012-03-11, 00:13:04,VALID,1001.28,VALID,0,VALID,89.1358,VALID,0.0815089,VALID,24.2857,VALID,23,VALID,0.916406,
2012-03-11, 00:14:04,VALID,1001.25,VALID,0,VALID,89.1282,VALID,0,VALID,24.2662,VALID,19,VALID,0.869922,
2012-03-11, 00:15:04,VALID,1001.23,VALID,0,VALID,89.0977,VALID,0,VALID,24.2875,VALID,13,VALID,0.713672,
2012-03-11, 00:16:04,VALID,1001.21,VALID,0,VALID,89.2198,VALID,0,VALID,24.2662,VALID,15,VALID,0.758203,
2012-03-11, 00:17:04,VALID,1001.23,VALID,0,VALID,89.2732,VALID,0,VALID,24.2875,VALID,16,VALID,0.611328,
2012-03-11, 00:18:04,VALID,1001.26,VALID,0,VALID,89.6088,VALID,0,VALID,24.2468,VALID,344,VALID,0.202344,
2012-03-11, 00:19:04,VALID,1001.29,VALID,0,VALID,89.647,VALID,0,VALID,24.2255,VALID,344,VALID,0.522656,
2012-03-11, 00:20:04,VALID,1001.34,VALID,0,VALID,90.0589,VALID,0,VALID,24.307,VALID,344,VALID,0.285937,
2012-03-11, 00:21:04,VALID,1001.36,VALID,0,VALID,90.1886,VALID,0,VALID,24.2857,VALID,344,VALID,0.028125,
2012-03-11, 00:22:04,VALID,1001.37,VALID,0,VALID,90.1581,VALID,0,VALID,24.2468,VALID,344,VALID,0.084375,
2012-03-11, 00:23:04,VALID,1001.39,VALID,0,VALID,89.9216,VALID,0,VALID,24.2078,VALID,344,VALID,0,
2012-03-11, 00:24:04,VALID,1001.43,VALID,0,VALID,89.9064,VALID,0,VALID,24.1884,VALID,344,VALID,0,
2012-03-11, 00:25:04,VALID,1001.44,VALID,0,VALID,90.181,VALID,0,VALID,24.2078,VALID,344,VALID,0.220703,
2012-03-11, 00:26:04,VALID,1001.45,VALID,0,VALID,90.4938,VALID,0,VALID,24.2078,VALID,344,VALID,0.0433594,
2012-03-11, 00:27:04,VALID,1001.46,VALID,0,VALID,90.5701,VALID,0,VALID,24.2273,VALID,344,VALID,0,
2012-03-11, 00:28:04,VALID,1001.47,VALID,0,VALID,90.8752,VALID,0,VALID,24.2468,VALID,344,VALID,0,
2012-03-11, 00:29:04,VALID,1001.45,VALID,0,VALID,91.0431,VALID,0,VALID,24.2681,VALID,344,VALID,0,
2012-03-11, 00:30:04,VALID,1001.47,VALID,0,VALID,90.9363,VALID,0,VALID,24.2255,VALID,343,VALID,0.462109,
2012-03-11, 00:31:04,VALID,1001.42,VALID,0,VALID,90.8523,VALID,0,VALID,24.2486,VALID,256,VALID,0.475,
2012-03-11, 00:32:04,VALID,1001.41,VALID,0,VALID,90.0818,VALID,0,VALID,24.2078,VALID,225,VALID,0.422266,
2012-03-11, 00:33:04,VALID,1001.38,VALID,0,VALID,90.4099,VALID,0,VALID,24.2078,VALID,225,VALID,0.00273437,
2012-03-11, 00:34:04,VALID,1001.38,VALID,0,VALID,90.593,VALID,0.0815089,VALID,24.2273,VALID,225,VALID,0.353125,
2012-03-11, 00:35:04,VALID,1001.32,VALID,0,VALID,90.8371,VALID,0.0815089,VALID,24.2468,VALID,225,VALID,0.084375,
2012-03-11, 00:36:04,VALID,1001.28,VALID,0,VALID,91.127,VALID,0,VALID,24.2662,VALID,225,VALID,0,
2012-03-11, 00:37:04,VALID,1001.24,VALID,0,VALID,91.5084,VALID,0,VALID,24.2857,VALID,225,VALID,0.294922,
2012-03-11, 00:38:04,VALID,1001.22,VALID,0,VALID,91.5084,VALID,0,VALID,24.2662,VALID,225,VALID,0,
2012-03-11, 00:39:04,VALID,1001.23,VALID,0,VALID,91.5542,VALID,0,VALID,24.2468,VALID,225,VALID,0,
2012-03-11, 00:40:04,VALID,1001.24,VALID,0,VALID,91.6381,VALID,0,VALID,24.2662,VALID,225,VALID,0,
2012-03-11, 00:41:04,VALID,1001.22,VALID,0,VALID,91.9128,VALID,0,VALID,24.2662,VALID,242,VALID,0.178125,
2012-03-11, 00:42:04,VALID,1001.26,VALID,0,VALID,92.1798,VALID,0.0815089,VALID,24.2644,VALID,260,VALID,0.241016,
2012-03-11, 00:43:04,VALID,1001.24,VALID,0,VALID,92.2561,VALID,0,VALID,24.2857,VALID,278,VALID,0.612891,
2012-03-11, 00:44:04,VALID,1001.23,VALID,0,VALID,92.2789,VALID,0,VALID,24.2857,VALID,286,VALID,0.0191406,
2012-03-11, 00:45:04,VALID,1001.23,VALID,0,VALID,92.4468,VALID,0,VALID,24.3052,VALID,309,VALID,0.458984,
2012-03-11, 00:46:04,VALID,1001.22,VALID,0,VALID,92.5841,VALID,0,VALID,24.3052,VALID,328,VALID,0.540234,
2012-03-11, 00:47:04,VALID,1001.22,VALID,0,VALID,92.5765,VALID,0,VALID,24.2857,VALID,354,VALID,0.470703,
2012-03-11, 00:48:04,VALID,1001.17,VALID,0,VALID,92.6299,VALID,0,VALID,24.2662,VALID,354,VALID,0.346484,
2012-03-11, 00:49:04,VALID,1001.15,VALID,0,VALID,92.668,VALID,0,VALID,24.2681,VALID,354,VALID,0.0875,
2012-03-11, 00:50:04,VALID,1001.16,VALID,0,VALID,92.7596,VALID,0,VALID,24.2273,VALID,354,VALID,0.320313,
2012-03-11, 00:51:04,VALID,1001.16,VALID,0,VALID,92.874,VALID,0,VALID,24.2078,VALID,355,VALID,0.440625,
2012-03-11, 00:52:04,VALID,1001.2,VALID,0,VALID,92.9503,VALID,0,VALID,24.1884,VALID,355,VALID,0.419531,
2012-03-11, 00:53:04,VALID,1001.2,VALID,0,VALID,93.0495,VALID,0,VALID,24.1689,VALID,355,VALID,0,
2012-03-11, 00:54:04,VALID,1001.19,VALID,0,VALID,93.1029,VALID,0,VALID,24.2097,VALID,355,VALID,0,
2012-03-11, 00:55:04,VALID,1001.23,VALID,0,VALID,93.1791,VALID,0,VALID,24.1494,VALID,355,VALID,0,
2012-03-11, 00:56:04,VALID,1001.27,VALID,0,VALID,93.2097,VALID,0,VALID,24.1707,VALID,355,VALID,0,
2012-03-11, 00:57:04,VALID,1001.29,VALID,0,VALID,93.2631,VALID,0,VALID,24.1902,VALID,355,VALID,0,
2012-03-11, 00:58:04,VALID,1001.31,VALID,0.5,VALID,93.1868,VALID,0,VALID,24.1513,VALID,355,VALID,0,
2012-03-11, 00:59:04,VALID,1001.36,VALID,0,VALID,93.1944,VALID,0,VALID,24.1105,VALID,355,VALID,0,
2012-03-11, 01:00:04,VALID,1001.4,VALID,0,VALID,93.2707,VALID,0,VALID,24.1513,VALID,355,VALID,0,
2012-03-11, 01:01:04,VALID,1001.39,VALID,0,VALID,93.4004,VALID,0,VALID,24.1707,VALID,355,VALID,0.472656,
2012-03-11, 01:02:04,VALID,1001.41,VALID,0,VALID,93.3775,VALID,0,VALID,24.1494,VALID,355,VALID,0.430078,
2012-03-11, 01:03:04,VALID,1001.37,VALID,0,VALID,93.3622,VALID,0,VALID,24.13,VALID,355,VALID,0.142578,
2012-03-11, 01:04:04,VALID,1001.39,VALID,0,VALID,93.4996,VALID,0,VALID,24.1707,VALID,355,VALID,0,
2012-03-11, 01:05:04,VALID,1001.39,VALID,0,VALID,93.5606,VALID,0,VALID,24.1689,VALID,355,VALID,0.155859,
2012-03-11, 01:06:04,VALID,1001.38,VALID,0,VALID,93.5453,VALID,0,VALID,24.1707,VALID,355,VALID,0.446484,
2012-03-11, 01:07:04,VALID,1001.42,VALID,0,VALID,93.5301,VALID,0,VALID,24.1494,VALID,355,VALID,0.349609,
2012-03-11, 01:08:04,VALID,1001.43,VALID,0,VALID,93.6216,VALID,0,VALID,24.1707,VALID,355,VALID,0,
2012-03-11, 01:09:04,VALID,1001.45,VALID,0,VALID,93.6521,VALID,0,VALID,24.13,VALID,355,VALID,0,
2012-03-11, 01:10:04,VALID,1001.45,VALID,0,VALID,93.614,VALID,0,VALID,24.091,VALID,20,VALID,0,
2012-03-11, 01:11:04,VALID,1001.47,VALID,0,VALID,93.6598,VALID,0,VALID,24.091,VALID,127,VALID,0.762109,
2012-03-11, 01:12:04,VALID,1001.49,VALID,0,VALID,93.8505,VALID,0,VALID,24.1105,VALID,154,VALID,0.738281,
2012-03-11, 01:13:04,VALID,1001.61,VALID,0,VALID,93.9268,VALID,0,VALID,24.1513,VALID,178,VALID,3.80469,
2012-03-11, 01:14:04,VALID,1001.41,VALID,0,VALID,92.668,VALID,0,VALID,24.1513,VALID,164,VALID,7.26406,
2012-03-11, 01:15:04,VALID,1001.67,VALID,0,VALID,92.2561,VALID,0,VALID,24.1707,VALID,117,VALID,4.58828,
2012-03-11, 01:16:04,VALID,1001.64,VALID,0,VALID,91.9204,VALID,0,VALID,24.1494,VALID,111,VALID,2.73281,
2012-03-11, 01:17:04,VALID,1001.6,VALID,0,VALID,91.867,VALID,0,VALID,24.1105,VALID,96,VALID,2.65742,
2012-03-11, 01:18:04,VALID,1001.48,VALID,0,VALID,91.1499,VALID,0,VALID,24.0345,VALID,136,VALID,4.96367,
2012-03-11, 01:19:04,VALID,1001.48,VALID,0.5,VALID,92.073,VALID,0,VALID,23.9742,VALID,118,VALID,2.73711,
2012-03-11, 01:20:04,VALID,1001.55,VALID,0.5,VALID,92.4086,VALID,0,VALID,23.8787,VALID,144,VALID,3.40469,
2012-03-11, 01:21:04,VALID,1001.58,VALID,1,VALID,92.9198,VALID,0,VALID,23.8009,VALID,140,VALID,3.05195,
2012-03-11, 01:22:04,VALID,1001.53,VALID,0.5,VALID,93.3012,VALID,0.0815089,VALID,23.723,VALID,111,VALID,2.71797,
2012-03-11, 01:23:04,VALID,1001.55,VALID,0.5,VALID,93.5835,VALID,0,VALID,23.6239,VALID,142,VALID,1.89531,
2012-03-11, 01:24:04,VALID,1001.49,VALID,0.5,VALID,93.8047,VALID,0,VALID,23.6044,VALID,110,VALID,1.71328,
2012-03-11, 01:25:04,VALID,1001.52,VALID,0,VALID,93.9497,VALID,0,VALID,23.5868,VALID,127,VALID,3.12344,
2012-03-11, 01:26:04,VALID,1001.56,VALID,0.5,VALID,94.0794,VALID,0,VALID,23.5673,VALID,111,VALID,1.79805,
2012-03-11, 01:27:04,VALID,1001.58,VALID,0,VALID,94.209,VALID,0,VALID,23.5655,VALID,103,VALID,1.38672,
2012-03-11, 01:28:04,VALID,1001.58,VALID,0,VALID,94.3464,VALID,0,VALID,23.585,VALID,111,VALID,1.59414,
2012-03-11, 01:29:04,VALID,1001.64,VALID,0,VALID,94.4989,VALID,0,VALID,23.6452,VALID,120,VALID,1.46094,
2012-03-11, 01:30:04,VALID,1001.66,VALID,0,VALID,94.6286,VALID,0,VALID,23.6841,VALID,112,VALID,2.25898,
2012-03-11, 01:31:04,VALID,1001.61,VALID,0,VALID,94.7202,VALID,0,VALID,23.7407,VALID,97,VALID,1.8625,
2012-03-11, 01:32:04,VALID,1001.64,VALID,0,VALID,94.7507,VALID,0,VALID,23.7796,VALID,135,VALID,1.54961,
2012-03-11, 01:33:04,VALID,1001.63,VALID,0,VALID,94.766,VALID,0,VALID,23.8185,VALID,99,VALID,2.94531,
2012-03-11, 01:34:04,VALID,1001.69,VALID,0,VALID,94.7583,VALID,0,VALID,23.838,VALID,106,VALID,1.53984,
2012-03-11, 01:35:04,VALID,1001.69,VALID,0.5,VALID,94.6515,VALID,0,VALID,23.8769,VALID,107,VALID,2.4543,
2012-03-11, 01:36:04,VALID,1001.71,VALID,0,VALID,94.6515,VALID,0,VALID,23.8964,VALID,56,VALID,1.51641,
2012-03-11, 01:37:04,VALID,1001.7,VALID,0.5,VALID,94.5218,VALID,0,VALID,23.8769,VALID,61,VALID,0.885938,
2012-03-11, 01:38:04,VALID,1001.74,VALID,0.5,VALID,94.4989,VALID,0,VALID,23.8787,VALID,85,VALID,0.993359,
2012-03-11, 01:39:04,VALID,1001.72,VALID,0.5,VALID,94.4532,VALID,0,VALID,23.8185,VALID,100,VALID,0.621875,
2012-03-11, 01:40:04,VALID,1001.67,VALID,1,VALID,94.4989,VALID,0,VALID,23.7991,VALID,129,VALID,2.07383,
2012-03-11, 01:41:04,VALID,1001.64,VALID,1,VALID,94.5523,VALID,0,VALID,23.7796,VALID,54,VALID,1.65664,
2012-03-11, 01:42:04,VALID,1001.63,VALID,1,VALID,94.6286,VALID,0,VALID,23.7601,VALID,90,VALID,0.714844,
2012-03-11, 01:43:04,VALID,1001.6,VALID,1,VALID,94.682,VALID,0,VALID,23.7619,VALID,80,VALID,1.05391,
2012-03-11, 01:44:04,VALID,1001.58,VALID,0.5,VALID,94.7125,VALID,0,VALID,23.7425,VALID,66,VALID,1.23086,
2012-03-11, 01:45:04,VALID,1001.58,VALID,0.5,VALID,94.766,VALID,0,VALID,23.6823,VALID,93,VALID,0.650781,
2012-03-11, 01:46:04,VALID,1001.52,VALID,0.5,VALID,94.827,VALID,0,VALID,23.7035,VALID,57,VALID,1.05273,
2012-03-11, 01:47:04,VALID,1001.5,VALID,0.5,VALID,94.8499,VALID,0.0815089,VALID,23.6823,VALID,120,VALID,1.10664,
2012-03-11, 01:48:04,VALID,1001.42,VALID,0.5,VALID,94.8804,VALID,0,VALID,23.6628,VALID,120,VALID,0.932031,
2012-03-11, 01:49:04,VALID,1001.36,VALID,0.5,VALID,94.9109,VALID,0,VALID,23.6239,VALID,119,VALID,0,
2012-03-11, 01:50:04,VALID,1001.3,VALID,0.5,VALID,94.949,VALID,0,VALID,23.6239,VALID,193,VALID,0.767578,
2012-03-11, 01:51:04,VALID,1001.26,VALID,0.5,VALID,94.9872,VALID,0,VALID,23.6239,VALID,214,VALID,0.223828,
2012-03-11, 01:52:04,VALID,1001.23,VALID,0.5,VALID,95.0406,VALID,0,VALID,23.6452,VALID,214,VALID,0.301953,
2012-03-11, 01:53:04,VALID,1001.21,VALID,0.5,VALID,95.0635,VALID,0,VALID,23.6628,VALID,214,VALID,0.00585938,
2012-03-11, 01:54:04,VALID,1001.2,VALID,0,VALID,95.1169,VALID,0,VALID,23.6841,VALID,214,VALID,0,
2012-03-11, 01:55:04,VALID,1001.18,VALID,0.5,VALID,95.1398,VALID,0,VALID,23.7035,VALID,214,VALID,0,
2012-03-11, 01:56:04,VALID,1001.17,VALID,0,VALID,95.1779,VALID,0,VALID,23.6823,VALID,214,VALID,0.310156,
2012-03-11, 01:57:04,VALID,1001.15,VALID,0,VALID,95.1703,VALID,0,VALID,23.7035,VALID,215,VALID,0.08125,
2012-03-11, 01:58:04,VALID,1001.16,VALID,0,VALID,95.1703,VALID,0,VALID,23.6416,VALID,117,VALID,0.19375,
2012-03-11, 01:59:04,VALID,1001.14,VALID,0,VALID,95.1932,VALID,0,VALID,23.6823,VALID,117,VALID,0.311328,
2012-03-11, 02:00:04,VALID,1001.13,VALID,0.5,VALID,95.1855,VALID,0,VALID,23.6823,VALID,72,VALID,0.488672,
2012-03-11, 02:01:04,VALID,1001.11,VALID,0,VALID,95.2237,VALID,0,VALID,23.6823,VALID,58,VALID,0.474609,
2012-03-11, 02:02:04,VALID,1001.07,VALID,0,VALID,95.2237,VALID,0.0815089,VALID,23.6823,VALID,18,VALID,0.590625,
2012-03-11, 02:03:04,VALID,1001.1,VALID,0,VALID,95.2237,VALID,0,VALID,23.6628,VALID,18,VALID,0.317187,
2012-03-11, 02:04:04,VALID,1001.08,VALID,0,VALID,95.2618,VALID,0,VALID,23.6628,VALID,18,VALID,0.334375,
2012-03-11, 02:05:04,VALID,1001.08,VALID,0,VALID,95.2618,VALID,0,VALID,23.6628,VALID,18,VALID,0.0242187,
2012-03-11, 02:06:04,VALID,1001.07,VALID,0,VALID,95.2542,VALID,0,VALID,23.661,VALID,18,VALID,0.00429688,
2012-03-11, 02:07:04,VALID,1001.02,VALID,0.5,VALID,95.2847,VALID,0,VALID,23.6416,VALID,18,VALID,0,
2012-03-11, 02:08:04,VALID,1001,VALID,0,VALID,95.3,VALID,0,VALID,23.6416,VALID,18,VALID,0,
2012-03-11, 02:09:04,VALID,1000.97,VALID,0,VALID,95.2923,VALID,0,VALID,23.6646,VALID,18,VALID,0,
2012-03-11, 02:10:04,VALID,1000.96,VALID,0.5,VALID,95.3,VALID,0,VALID,23.6239,VALID,18,VALID,0,
2012-03-11, 02:11:04,VALID,1000.93,VALID,0,VALID,95.3,VALID,0,VALID,23.6452,VALID,18,VALID,0,
2012-03-11, 02:12:04,VALID,1000.91,VALID,0,VALID,95.3076,VALID,0,VALID,23.6434,VALID,24,VALID,0.0992187,
2012-03-11, 02:13:04,VALID,1000.92,VALID,0,VALID,95.3381,VALID,0,VALID,23.6434,VALID,43,VALID,0.369922,
2012-03-11, 02:14:04,VALID,1000.87,VALID,0,VALID,95.3381,VALID,0,VALID,23.6434,VALID,43,VALID,0.0371094,
2012-03-11, 02:15:04,VALID,1000.85,VALID,0,VALID,95.3534,VALID,0,VALID,23.6434,VALID,43,VALID,0.0253906,
2012-03-11, 02:16:04,VALID,1000.86,VALID,0,VALID,95.3305,VALID,0.0815089,VALID,23.6221,VALID,43,VALID,0,
2012-03-11, 02:17:04,VALID,1000.83,VALID,0,VALID,95.3457,VALID,0,VALID,23.6434,VALID,43,VALID,0,
2012-03-11, 02:18:04,VALID,1000.79,VALID,0,VALID,95.3763,VALID,0.0815089,VALID,23.6434,VALID,42,VALID,0.0691406,
2012-03-11, 02:19:04,VALID,1000.76,VALID,0,VALID,95.3686,VALID,0,VALID,23.6628,VALID,31,VALID,0.731641,
2012-03-11, 02:20:04,VALID,1000.78,VALID,0,VALID,95.3763,VALID,0,VALID,23.6646,VALID,27,VALID,0.546094,
2012-03-11, 02:21:04,VALID,1000.72,VALID,0.5,VALID,95.3686,VALID,0,VALID,23.6646,VALID,27,VALID,0.20625,
2012-03-11, 02:22:04,VALID,1000.69,VALID,0,VALID,95.3915,VALID,0,VALID,23.6628,VALID,27,VALID,0.164063,
2012-03-11, 02:23:04,VALID,1000.65,VALID,0,VALID,95.3839,VALID,0,VALID,23.6434,VALID,27,VALID,0.0351563,
2012-03-11, 02:24:04,VALID,1000.64,VALID,0,VALID,95.4068,VALID,0,VALID,23.6434,VALID,27,VALID,0.127734,
2012-03-11, 02:25:04,VALID,1000.59,VALID,0,VALID,95.3915,VALID,0,VALID,23.6434,VALID,29,VALID,0.327344,
2012-03-11, 02:26:04,VALID,1000.6,VALID,0,VALID,95.4144,VALID,0,VALID,23.6239,VALID,29,VALID,0,
2012-03-11, 02:27:04,VALID,1000.56,VALID,0,VALID,95.3915,VALID,0,VALID,23.6009,VALID,29,VALID,0.138672,
2012-03-11, 02:28:04,VALID,1000.5,VALID,0,VALID,95.422,VALID,0.0815089,VALID,23.6239,VALID,29,VALID,0.466016,
2012-03-11, 02:29:04,VALID,1000.51,VALID,0,VALID,95.422,VALID,0,VALID,23.6239,VALID,29,VALID,0.703906,
2012-03-11, 02:30:04,VALID,1000.46,VALID,0,VALID,95.4144,VALID,0,VALID,23.6239,VALID,22,VALID,0.669922,
2012-03-11, 02:31:04,VALID,1000.45,VALID,0,VALID,95.4373,VALID,0.0815089,VALID,23.6434,VALID,16,VALID,0.945703,
2012-03-11, 02:32:04,VALID,1000.42,VALID,0,VALID,95.4449,VALID,0,VALID,23.6239,VALID,30,VALID,0.772656,
2012-03-11, 02:33:04,VALID,1000.42,VALID,0,VALID,95.4373,VALID,0.0815089,VALID,23.6628,VALID,29,VALID,0.633984,
2012-03-11, 02:34:04,VALID,1000.42,VALID,0,VALID,95.4297,VALID,0,VALID,23.6434,VALID,29,VALID,0.460547,
2012-03-11, 02:35:04,VALID,1000.43,VALID,0,VALID,95.4373,VALID,0,VALID,23.6434,VALID,29,VALID,0.505859,
2012-03-11, 02:36:04,VALID,1000.41,VALID,0,VALID,95.4602,VALID,0,VALID,23.6434,VALID,29,VALID,0.165625,
2012-03-11, 02:37:04,VALID,1000.39,VALID,0,VALID,95.4449,VALID,0,VALID,23.6628,VALID,29,VALID,0,
2012-03-11, 02:38:04,VALID,1000.38,VALID,0,VALID,95.4526,VALID,0,VALID,23.6434,VALID,29,VALID,0,
2012-03-11, 02:39:04,VALID,1000.39,VALID,0,VALID,95.4449,VALID,0,VALID,23.6434,VALID,29,VALID,0,
2012-03-11, 02:40:04,VALID,1000.38,VALID,0,VALID,95.4449,VALID,0,VALID,23.6239,VALID,29,VALID,0,
2012-03-11, 02:41:04,VALID,1000.36,VALID,0,VALID,95.4526,VALID,0,VALID,23.6434,VALID,29,VALID,0,
2012-03-11, 02:42:04,VALID,1000.42,VALID,0,VALID,95.4678,VALID,0,VALID,23.6628,VALID,30,VALID,0,
2012-03-11, 02:43:04,VALID,1000.42,VALID,0,VALID,95.4526,VALID,0,VALID,23.6628,VALID,71,VALID,0.430469,
2012-03-11, 02:44:04,VALID,1000.41,VALID,0,VALID,95.4678,VALID,0,VALID,23.6434,VALID,72,VALID,0.377344,
2012-03-11, 02:45:04,VALID,1000.4,VALID,0,VALID,95.4831,VALID,0,VALID,23.6646,VALID,71,VALID,0.219141,
2012-03-11, 02:46:04,VALID,1000.41,VALID,0,VALID,95.4678,VALID,0,VALID,23.6434,VALID,63,VALID,0.361328,
2012-03-11, 02:47:04,VALID,1000.4,VALID,0,VALID,95.4678,VALID,0,VALID,23.6221,VALID,47,VALID,0.467578,
2012-03-11, 02:48:04,VALID,1000.43,VALID,0,VALID,95.4754,VALID,0,VALID,23.6221,VALID,49,VALID,0.20625,
2012-03-11, 02:49:04,VALID,1000.43,VALID,0,VALID,95.4678,VALID,0,VALID,23.6434,VALID,49,VALID,0,
2012-03-11, 02:50:04,VALID,1000.43,VALID,0,VALID,95.4678,VALID,0,VALID,23.6434,VALID,49,VALID,0.500781,
2012-03-11, 02:51:04,VALID,1000.47,VALID,0,VALID,95.4907,VALID,0,VALID,23.6434,VALID,45,VALID,0.455469,
2012-03-11, 02:52:04,VALID,1000.49,VALID,0,VALID,95.4831,VALID,0,VALID,23.6434,VALID,65,VALID,0.353906,
2012-03-11, 02:53:04,VALID,1000.52,VALID,0,VALID,95.4754,VALID,0,VALID,23.6434,VALID,58,VALID,0.561328,
2012-03-11, 02:54:04,VALID,1000.51,VALID,0,VALID,95.4678,VALID,0,VALID,23.6452,VALID,67,VALID,0.535937,
2012-03-11, 02:55:04,VALID,1000.57,VALID,0,VALID,95.4831,VALID,0,VALID,23.6434,VALID,70,VALID,0,
2012-03-11, 02:56:04,VALID,1000.6,VALID,0,VALID,95.4831,VALID,0,VALID,23.6239,VALID,84,VALID,0.556641,
2012-03-11, 02:57:04,VALID,1000.64,VALID,0,VALID,95.4526,VALID,0,VALID,23.6239,VALID,61,VALID,0.783594,
2012-03-11, 02:58:04,VALID,1000.67,VALID,0.5,VALID,95.4678,VALID,0.0815089,VALID,23.6434,VALID,86,VALID,1.33477,
2012-03-11, 02:59:04,VALID,1000.71,VALID,0,VALID,95.4754,VALID,0,VALID,23.6221,VALID,61,VALID,0.343359,
2012-03-11, 03:00:04,VALID,1000.68,VALID,0.5,VALID,95.4754,VALID,0,VALID,23.6026,VALID,87,VALID,1.04805,
2012-03-11, 03:01:04,VALID,1000.7,VALID,0,VALID,95.4907,VALID,0,VALID,23.6239,VALID,78,VALID,1.19023,
2012-03-11, 03:02:04,VALID,1000.66,VALID,0,VALID,95.4907,VALID,0,VALID,23.6646,VALID,97,VALID,1.06562,
2012-03-11, 03:03:04,VALID,1000.6,VALID,0,VALID,95.4678,VALID,0,VALID,23.6239,VALID,67,VALID,1.79141,
2012-03-11, 03:04:04,VALID,1000.57,VALID,0,VALID,95.4754,VALID,0,VALID,23.6239,VALID,6,VALID,1.96875,
2012-03-11, 03:05:04,VALID,1000.57,VALID,0,VALID,95.4754,VALID,0.0815089,VALID,23.6239,VALID,43,VALID,1.18125,
2012-03-11, 03:06:04,VALID,1000.58,VALID,0.5,VALID,95.4526,VALID,0,VALID,23.6239,VALID,125,VALID,0.817187,
2012-03-11, 03:07:04,VALID,1000.57,VALID,0,VALID,95.4449,VALID,0.0815089,VALID,23.6026,VALID,64,VALID,1.53242,
2012-03-11, 03:08:04,VALID,1000.6,VALID,0.5,VALID,95.4526,VALID,0,VALID,23.5832,VALID,82,VALID,0.778125,
2012-03-11, 03:09:04,VALID,1000.57,VALID,0,VALID,95.4297,VALID,0,VALID,23.6239,VALID,53,VALID,1.33633,
2012-03-11, 03:10:04,VALID,1000.58,VALID,0,VALID,95.4297,VALID,0,VALID,23.585,VALID,72,VALID,0.648438,
2012-03-11, 03:11:04,VALID,1000.56,VALID,0,VALID,95.4144,VALID,0,VALID,23.5655,VALID,79,VALID,1.26328,
2012-03-11, 03:12:04,VALID,1000.54,VALID,0.5,VALID,95.3839,VALID,0,VALID,23.5266,VALID,73,VALID,1.96797,
2012-03-11, 03:13:04,VALID,1000.5,VALID,0,VALID,95.3839,VALID,0.0815089,VALID,23.5266,VALID,34,VALID,0.943359,
2012-03-11, 03:14:04,VALID,1000.51,VALID,0,VALID,95.3915,VALID,0,VALID,23.5071,VALID,79,VALID,1.51758,
2012-03-11, 03:15:04,VALID,1000.53,VALID,0,VALID,95.3763,VALID,0,VALID,23.4877,VALID,48,VALID,0.774609,
2012-03-11, 03:16:04,VALID,1000.53,VALID,0,VALID,95.3686,VALID,0.0815089,VALID,23.4877,VALID,119,VALID,1.17891,
2012-03-11, 03:17:04,VALID,1000.51,VALID,0,VALID,95.3381,VALID,0,VALID,23.4293,VALID,43,VALID,1.37656,
2012-03-11, 03:18:04,VALID,1000.51,VALID,0.5,VALID,95.3381,VALID,0.0815089,VALID,23.408,VALID,85,VALID,0.789844,
2012-03-11, 03:19:04,VALID,1000.5,VALID,0,VALID,95.3381,VALID,0.0815089,VALID,23.408,VALID,101,VALID,1.57031,
2012-03-11, 03:20:04,VALID,1000.51,VALID,0,VALID,95.3457,VALID,0.0815089,VALID,23.4293,VALID,44,VALID,0.420703,
2012-03-11, 03:21:04,VALID,1000.51,VALID,0,VALID,95.3305,VALID,0.0815089,VALID,23.4293,VALID,78,VALID,0.534375,
2012-03-11, 03:22:04,VALID,1000.49,VALID,0,VALID,95.3305,VALID,0.0815089,VALID,23.4098,VALID,79,VALID,0.925,
2012-03-11, 03:23:04,VALID,1000.5,VALID,0,VALID,95.2923,VALID,0,VALID,23.3709,VALID,47,VALID,0.785937,
2012-03-11, 03:24:04,VALID,1000.47,VALID,0,VALID,95.2466,VALID,0,VALID,23.332,VALID,28,VALID,0.434375,
2012-03-11, 03:25:04,VALID,1000.45,VALID,0,VALID,95.2618,VALID,0,VALID,23.2913,VALID,40,VALID,0.719922,
2012-03-11, 03:26:04,VALID,1000.43,VALID,0.5,VALID,95.2008,VALID,0.0815089,VALID,23.2541,VALID,40,VALID,2.08633,
2012-03-11, 03:27:04,VALID,1000.41,VALID,0,VALID,95.2313,VALID,0,VALID,23.2347,VALID,72,VALID,0.935938,
2012-03-11, 03:28:04,VALID,1000.4,VALID,0,VALID,95.2084,VALID,0,VALID,23.2152,VALID,52,VALID,0.665625,
2012-03-11, 03:29:04,VALID,1000.34,VALID,0,VALID,95.2084,VALID,0,VALID,23.194,VALID,33,VALID,1.20938,
2012-03-11, 03:30:04,VALID,1000.33,VALID,0,VALID,95.2008,VALID,0.0815089,VALID,23.1957,VALID,9,VALID,0.573438,
2012-03-11, 03:31:04,VALID,1000.31,VALID,0,VALID,95.2161,VALID,0,VALID,23.1957,VALID,29,VALID,0.617188,
2012-03-11, 03:32:04,VALID,1000.31,VALID,0,VALID,95.1855,VALID,0,VALID,23.1763,VALID,141,VALID,0.257031,
2012-03-11, 03:33:04,VALID,1000.31,VALID,0.5,VALID,95.1855,VALID,0,VALID,23.1763,VALID,76,VALID,1.23438,
2012-03-11, 03:34:04,VALID,1000.3,VALID,0,VALID,95.2008,VALID,0.0815089,VALID,23.1957,VALID,103,VALID,1.80898,
2012-03-11, 03:35:04,VALID,1000.31,VALID,0,VALID,95.2008,VALID,0.0815089,VALID,23.217,VALID,80,VALID,0.867578,
2012-03-11, 03:36:04,VALID,1000.3,VALID,0,VALID,95.1932,VALID,0,VALID,23.1957,VALID,47,VALID,0.757031,
2012-03-11, 03:37:04,VALID,1000.34,VALID,0,VALID,95.1779,VALID,0,VALID,23.1763,VALID,85,VALID,0.893359,
2012-03-11, 03:38:04,VALID,1000.29,VALID,0,VALID,95.1703,VALID,0.0815089,VALID,23.2152,VALID,78,VALID,1.68789,
2012-03-11, 03:39:04,VALID,1000.35,VALID,0,VALID,95.155,VALID,0.0815089,VALID,23.1957,VALID,98,VALID,0.933984,
2012-03-11, 03:40:04,VALID,1000.33,VALID,0,VALID,95.1245,VALID,0,VALID,23.2152,VALID,76,VALID,1.25117,
2012-03-11, 03:41:04,VALID,1000.31,VALID,0,VALID,95.1016,VALID,0,VALID,23.2152,VALID,95,VALID,1.61602,
2012-03-11, 03:42:04,VALID,1000.33,VALID,0,VALID,95.0864,VALID,0.0815089,VALID,23.2347,VALID,110,VALID,0.963672,
2012-03-11, 03:43:04,VALID,1000.35,VALID,0,VALID,95.0558,VALID,0,VALID,23.2347,VALID,103,VALID,1.58555,
2012-03-11, 03:44:04,VALID,1000.34,VALID,0,VALID,95.033,VALID,0,VALID,23.2152,VALID,109,VALID,1.2582,
2012-03-11, 03:45:04,VALID,1000.35,VALID,0,VALID,95.0253,VALID,0,VALID,23.2541,VALID,81,VALID,0.955078,